www.pogodaiklimat.ru

Погода и климат >> Архив погоды >> Марокко >> Таза


ПОГОДА в Тазе

  • Прогноз погоды в Тазе
  • Монитор погоды в Тазе

АРХИВ ПОГОДЫ в Тазе

Время (UTC), дата Ветер
(напр.,м/с)
 
Видим.   Явления Облачность Т
(С)
Тd
(С)
f
(%)
Тe
(С)
Тes
(С)
Комфортность P
(гПа)
Po
(гПа)
Тmin
(С)
Tmax
(С)
R
(мм)
R24
(мм)
S
(см)
06 13.08 штиль 0 15 км ясно +20.2 +12.3 60 +22 +22 комфорт 1015.1 957.2 +20.0
09 13.08 штиль 0 15 км ясно +28.0 +10.5 34 +29 +42 жарко 1014.1 957.8
12 13.08 В 6 15 км ясно +33.3 +14.9 33 +35 +43 душно 1012.5 957.2
15 13.08 В 4 15 км ясно +36.1 +17.3 33 +39 +47 очень
душно
1010.0 955.4
18 13.08 В 4 15 км ясно +32.7 +20.5 49 +40 +40 очень
душно
1011.1 956.0 +36.9
06 14.08 штиль 0 15 км 6/0
[Ac trans]
+23.1 +21.3 90 +31 +31 очень
душно
1016.6 959.4 +22.2
09 14.08 В 4 15 км 6/6 800 м
[Cu med, cong]
+25.8 +20.8 74 +32 +35 очень
душно
1016.4 959.8
12 14.08 штиль 0 15 км ясно +32.0 +20.1 49 +38 +64 опасность
солнечного
удара
1013.8 958.4
15 14.08 штиль 0 15 км ясно +36.5 +17.6 33 +40 +56 опасность
солнечного
удара
1011.0 956.4
18 14.08 штиль 0 15 км ясно +35.0 +16.5 33 +38 +39 очень
душно
1010.6 955.8 +37.5
06 15.08 штиль 0 15 км ясно +23.3 +18.9 76 +30 +30 очень
душно
1015.6 958.5 +22.8
09 15.08 В 4 15 км ясно +29.8 +19.6 54 +36 +42 очень
душно
1014.3 958.4
12 15.08 В 4 15 км ясно +36.0 +19.3 38 +41 +54 опасность
перегрева
1011.9 957.3
15 15.08 В 4 15 км ясно +40.8 +15.7 23 +42 +50 опасность
перегрева
1009.1 955.3
18 15.08 В 4 15 км ясно +36.6 +13.9 26 +37 +38 очень
жарко
1010.2 955.6 +41.6
06 16.08 штиль 0 15 км ясно +23.0 +12.7 52 +26 +26 жарко 1015.4 959.1 +22.6
09 16.08 штиль 0 15 км ясно +29.0 +18.3 52 +34 +46 очень
душно
1014.2 958.2
12 16.08 штиль 0 15 км ясно +35.0 +17.5 36 +39 +65 опасность
солнечного
удара
1012.0 957.2
15 16.08 штиль 0 15 км ясно +39.0 +16.5 27 +41 +57 опасность
перегрева
1009.5 955.5
18 16.08 штиль 0 15 км ясно +36.5 +17.6 33 +40 +41 очень
душно
1008.9 954.5 +39.9
06 17.08 В 4 15 км ясно +22.7 +13.0 54 +26 +26 жарко 1014.1 956.8 +22.5
09 17.08 В 4 15 км ясно +30.2 +15.4 41 +33 +39 душно 1013.0 957.2
12 17.08 В 4 15 км ясно +37.0 +14.5 26 +38 +51 опасность
солнечного
удара
1009.7 955.2
15 17.08 штиль 0 15 км ясно +41.2 +13.1 19 +41 +57 опасность
перегрева
1006.8 953.2
18 17.08 штиль 0 15 км ясно +38.5 +10.1 18 +37 +38 очень
жарко
1006.7 952.5 +42.0
06 18.08 З 6 15 км ясно +23.5 +17.5 69 +27 +27 душно 1012.4 955.5 +23.3
09 18.08 штиль 0 15 км ясно +28.0 +19.2 59 +34 +46 очень
душно
1013.4 957.3
12 18.08 З 6 15 км ясно +34.6 +18.3 38 +39 +46 очень
душно
1011.2 956.4
15 18.08 З 4 15 км ясно +36.6 +14.6 27 +38 +46 очень
душно
1009.3 954.7
18 18.08 З 4 15 км ясно +34.2 +14.3 30 +35 +36 очень
жарко
1009.5 954.6 +37.6
06 19.08 штиль 0 15 км ясно +22.3 +14.1 60 +26 +26 жарко 1014.7 957.4 +21.7
09 19.08 штиль 0 15 км ясно +28.4 +15.8 46 +31 +44 душно 1013.6 957.5
12 19.08 З 4 15 км ясно +35.6 +16.3 32 +38 +51 опасность
солнечного
удара
1011.0 956.3
15 19.08 З 4 15 км ясно +37.4 +13.5 24 +38 +46 душно 1009.1 954.7
18 19.08 З 4 15 км ясно +34.3 +12.4 27 +35 +35 очень
жарко
1009.1 954.2 +38.9

 

Местоположение метеостанции Таза (Марокко): широта 34.22 долгота -4.00 высота над уровнем моря 510 м.

В архиве по умолчанию представлена погода в Тазе за последнюю неделю. Архивные данные за месяц целиком и за предыдущие месяцы, начиная с января 2011 года, Вы можете получить, выбрав интересующий диапазон дат из раскрывающегося списка и нажав кнопку "Ввод!".


*Определитесь, кто Вы:
робот инопланетянин человек

Внимание! Время в таблицах - всемирное. Для получения местного времени необходимо прибавить поправку, которая равна 0 ч.

Смотрите также архив погоды в соседних городах и на ближайших метеорологических станциях:

Погода в Фесе (Марокко) (96 км)
Погода в Эль-Хосейме (Марокко) (108 км)
Погода в Аль-Аруи (Марокко) (123 км)
Погода в Мекнесе (Марокко) (146 км)
Погода в Шавене (Марокко) (152 км)
Погода в Мелилье (Испания) (152 км)
Погода в Мидельте (Марокко) (184 км)
Погода в Тетуане (Марокко) (194 км)
Погода в Уджде (Марокко) (200 км)
Погода в Багнии (Алжир) (214 км)

Пояснения к столбцам:

Ветер - указаны скорость ветра в м/с - средняя за 10 мин, порывы в срок и между сроками (в фигурных скобках) и направление, откуда дует ветер: С - северный, СВ - северо-восточный, В - восточный, ЮВ - юго-восточный, Ю - южный, ЮЗ - юго-западный, З - западный, СЗ - северо-западный.
Видимость - горизонтальная дальность видимости в метрах или километрах. При видимости от 1 до 10 км при отсутствии осадков обычно наблюдается дымка, при ухудшении видимости до 1 км и менее - туман. В сухую погоду видимость может ухудшаться дымом, пылью или мглою.
Явления - указаны атмосферные явления, наблюдавшиеся в срок или в последний час перед сроком; фигурными скобками обозначены явления, наблюдавшиеся между сроками (за 1-3 часа до срока); квадратными скобками обозначены град или гололедные отложения с указанием их диаметра в мм.
Облачность - указаны через наклонную черту общая и нижняя облачность в баллах и высота нижней границы облаков в метрах; квадратными скобками обозначены формы облаков: Ci - перистые, Cs - перисто-слоистые, Cc - перисто-кучевые, Ac - высококучевые, As - высокослоистые, Sc - слоисто-кучевые, Ns - слоисто-дождевые, Cu - кучевые, Cb - кучево-дождевые. Подробнее классификацию облаков см. в Атласе облаков (PDF).
T - Температура воздуха - температура, измеренная на высоте 2 м над землей.
Td - Температура точки росы - температура, при понижении до которой содержащийся в воздухе водяной пар достигнет насыщения.
f - Относительная влажность воздуха - влажноcть воздуха, измеренная на высоте 2 м над землей.
Te - Эффективная температура - температура, которую ощущает одетый по сезону человек в тени. Характеристика душности погоды. При расчете учитывается влияние влажности воздуха и скорости ветра на теплоощущения человека.
Tes - Эффективная температура на солнце - температура, которую ощущает человек, с поправкой на солнечный нагрев. Характеристика знойности погоды. Зависит от высоты солнца над горизонтом, облачности и скорости ветра. Ночью, в пасмурную погоду, а также при ветре 12 м/с и более поправка равна нулю.
P - Атмосферное давление - приведенное к уровню моря атмосферное давление.
Po - Атмосферное давление - измеренное на уровне метеостанции атмосферное давление.
Tmin - Минимальная температура - минимум температуры воздуха на высоте 2 м над землей.
Tmax - Максимальная температура - максимум температуры воздуха на высоте 2 м над землей.
R - Количество осадков - Количество выпавших осадков за период времени, мм. При наведении курсора мыши на число - период времени, за который выпало указанное количество осадков.
R24 - Количество осадков - Количество выпавших осадков за 24 часа, мм.
S - Снежный покров - Высота снежного покрова, см. При наведении курсора мыши на число - состояние снежного покрова и степень покрытия местности в баллах.